Wind_Speed
23 24 24 24 25 25 26 27 29 27 27 26 28 29 29 29 29 30 29 29 29 29 30 30 30 30 31 31 31 32 32 32 31 31 31 31 31 31 31 31 32 31 32 32
25 25 26 26 25 26 26 27 28 27 26 26 27 28 29 29 29 29 29 29 29 29 30 30 30 30 30 30 30 31 31 30 30 30 30 30 30 30 30 29 30 30 31 31
25 25 27 26 24 25 27 27 28 28 26 27 27 28 28 29 28 28 28 28 29 29 29 29 29 30 30 29 29 29 29 29 29 29 29 29 29 29 29 29 29 30 31 31
27 26 27 25 24 25 26 26 27 27 26 26 27 27 27 28 28 27 27 26 27 27 28 28 28 28 29 28 28 28 28 28 28 28 29 29 29 29 29 29 29 30 30 30
27 28 27 24 24 24 25 23 24 25 24 25 25 26 26 27 27 27 27 27 27 27 27 27 27 27 28 27 27 27 27 28 28 29 29 29 28 27 28 29 29 29 29 30
27 28 27 24 24 24 24 23 22 23 24 24 25 25 25 26 27 28 28 27 26 26 26 26 26 26 26 26 27 27 27 27 28 28 28 28 28 27 29 29 29 29 30 29
26 27 26 25 24 24 23 22 22 23 23 24 25 25 25 26 26 27 28 27 26 25 25 25 26 26 25 25 26 26 26 27 27 27 27 27 28 28 28 28 29 28 29 28
25 25 24 24 23 23 22 22 23 23 23 24 25 25 25 26 26 27 27 27 26 26 25 25 25 25 25 25 25 24 25 25 26 27 27 27 27 27 28 28 28 27 27 27
25 24 24 24 23 23 22 23 23 24 23 24 24 25 25 26 26 26 26 26 26 26 26 26 25 25 24 25 24 24 24 24 25 26 26 26 26 26 27 27 26 26 25 25
25 23 24 24 24 24 24 24 23 23 23 24 24 24 25 25 25 26 26 26 26 26 26 25 24 24 24 24 24 24 24 24 24 25 24 24 24 24 23 23 24 23 23 23
24 24 24 24 24 25 25 25 24 23 23 24 24 24 24 25 25 25 24 25 25 24 24 24 24 24 25 24 24 23 23 22 22 22 21 20 19 19 19 20 21 21 20 20
23 23 24 24 24 25 25 25 24 23 23 24 25 25 25 25 24 23 23 23 23 23 22 23 23 23 24 24 23 21 20 19 18 18 18 17 16 16 17 17 18 17 17 17
23 23 23 23 23 24 24 24 23 23 23 24 24 25 25 24 24 23 22 22 22 21 21 21 22 22 22 21 20 19 17 17 16 15 15 14 14 15 15 15 15 15 16 16
23 23 22 22 22 23 23 24 24 24 24 24 24 24 24 24 23 22 22 22 22 21 21 21 21 21 20 18 17 16 14 14 14 14 13 13 13 14 14 13 14 14 15 15
22 22 21 21 22 22 23 23 24 24 24 24 24 24 24 24 23 23 22 22 22 21 21 21 20 19 18 16 15 14 13 13 13 13 13 13 14 14 14 14 14 13 14 14
22 22 21 21 22 22 23 23 23 24 23 23 24 24 24 24 24 23 23 22 21 21 20 19 18 18 16 15 14 13 12 12 12 12 13 13 13 13 13 12 12 12 12 13
22 22 21 21 21 22 23 23 24 24 23 23 23 24 24 24 24 24 22 21 20 20 19 18 17 16 15 14 14 13 12 12 13 13 12 12 13 13 12 12 11 11 12 11
22 22 22 22 21 22 22 23 23 23 23 23 24 24 24 24 24 23 22 20 19 19 18 16 16 15 14 14 13 12 12 12 13 12 12 12 12 12 12 11 11 11 10 9
22 22 22 22 22 22 22 23 23 23 23 24 24 24 23 23 23 22 21 19 18 18 17 15 15 14 13 12 12 12 11 12 12 12 12 12 12 11 11 10 10 10 9 8
22 22 22 22 22 22 23 23 23 23 23 24 23 23 22 22 21 20 20 19 17 16 15 15 14 13 12 11 11 11 11 11 11 11 11 11 10 10 10 10 9 9 8 8
21 22 22 22 22 23 23 23 23 23 23 23 22 22 21 21 20 19 18 18 17 16 15 14 13 12 11 10 10 11 11 11 10 10 10 10 9 9 9 9 9 9 8 8
21 22 22 22 23 23 23 23 23 23 23 22 22 21 20 19 18 18 17 17 16 15 15 14 13 12 11 11 11 11 11 11 11 11 10 10 9 9 9 8 8 7 7 7
22 22 22 22 22 22 22 22 22 22 22 22 21 20 19 19 18 17 16 16 15 14 14 13 13 12 11 11 11 11 10 10 10 10 9 9 9 9 8 8 8 7 7 7
22 22 23 22 22 21 21 22 22 22 21 21 20 19 18 17 16 16 15 14 13 13 12 12 12 12 12 11 11 10 10 10 10 9 9 9 9 8 8 8 7 7 7 7
22 22 22 22 21 21 21 21 21 20 20 19 18 17 16 15 15 14 14 13 13 12 11 11 11 10 10 10 10 10 10 10 10 10 9 9 8 8 8 8 8 7 7 7
22 22 22 22 21 21 20 20 19 19 18 17 16 15 14 14 13 13 12 12 11 11 11 10 10 9 9 9 9 9 9 9 9 9 9 9 8 8 7 7 8 7 7 7
22 22 22 21 20 20 19 19 18 17 16 16 15 14 13 12 12 12 12 12 12 11 11 10 10 10 9 9 9 9 9 9 9 9 9 9 8 8 7 7 7 7 7 7
Wind_Direction
279 281 281 280 279 280 281 283 284 284 283 283 283 283 283 283 283 284 283 282 281 279 278 279 279 278 277 278 279 278 278 275 272 270 271 273 273 274 274 275 272 270 269 270
280 280 280 279 280 280 282 283 284 283 283 284 283 283 283 284 284 284 284 282 282 282 280 280 280 278 278 278 280 280 278 276 272 271 271 273 274 275 275 275 272 271 273 273
284 281 280 279 282 282 283 284 284 284 285 283 283 283 283 283 284 283 282 282 283 284 284 283 281 279 278 279 280 280 278 275 273 272 273 274 274 274 275 275 274 272 272 273
285 283 282 284 284 284 285 287 287 287 286 284 284 284 283 283 283 284 283 284 286 287 287 286 284 281 280 281 281 282 280 277 274 272 274 275 273 272 274 274 275 274 274 273
285 285 285 284 286 285 286 289 290 289 288 286 286 284 283 283 283 284 284 285 285 286 288 287 285 284 285 282 282 282 281 278 275 273 274 274 272 271 273 275 276 277 278 277
285 285 287 287 285 285 286 289 291 291 290 288 287 286 286 285 285 285 286 287 286 287 287 287 286 287 287 283 282 282 281 278 277 275 274 273 272 272 274 275 276 278 281 280
286 286 285 287 287 286 287 290 291 292 291 289 289 290 289 287 286 287 288 287 286 286 287 288 287 287 287 285 285 283 283 280 278 277 277 275 274 274 275 276 277 279 281 281
287 286 287 285 286 287 288 287 290 292 292 292 291 290 289 289 288 287 287 287 286 286 287 289 289 288 287 286 285 285 284 282 281 280 279 275 275 275 275 276 279 279 279 279
288 286 285 284 284 284 283 286 288 290 291 293 293 292 291 290 289 286 286 287 288 288 288 289 290 290 288 287 286 285 284 283 282 282 281 277 275 275 275 275 276 277 277 278
288 287 285 283 283 283 283 285 287 290 292 293 293 293 294 293 291 288 287 289 290 290 289 289 288 288 289 289 288 287 284 283 283 284 284 280 276 276 274 272 273 274 276 276
287 287 284 283 282 282 284 284 285 286 288 291 292 294 295 296 295 293 292 292 292 292 291 290 288 287 287 288 289 290 286 284 283 283 282 280 280 275 272 274 275 276 277 278
288 287 285 282 281 282 283 284 285 286 286 289 291 294 295 296 296 296 295 294 295 294 292 290 288 287 288 288 290 291 288 285 284 284 281 278 277 277 275 277 277 277 279 279
290 288 286 284 282 282 284 284 284 285 286 289 291 293 294 295 295 296 297 297 297 296 293 291 290 288 289 288 288 289 287 282 280 281 278 279 281 281 280 279 278 275 275 276
290 289 288 286 283 283 284 283 284 285 286 289 293 294 294 294 294 295 296 296 296 294 291 291 291 291 289 287 286 286 284 280 279 281 280 280 283 286 284 280 280 278 276 277
288 288 287 287 287 287 288 287 285 285 287 289 293 294 294 294 293 293 296 295 295 293 290 289 289 289 288 286 285 282 280 279 281 282 281 281 281 282 283 285 287 286 283 281
286 287 286 286 288 289 290 290 287 286 287 289 291 293 294 294 293 293 294 293 293 291 289 287 287 287 286 283 280 279 276 277 280 281 278 277 280 283 286 287 287 288 290 288
285 287 285 285 288 289 290 291 289 287 287 289 291 292 292 293 293 292 293 293 292 290 286 285 285 285 283 279 278 276 272 273 278 280 278 277 278 280 281 283 285 290 293 291
287 289 286 285 286 287 289 291 291 288 287 289 291 292 292 291 292 292 292 291 290 289 286 284 283 281 279 276 275 274 272 272 276 278 277 277 278 279 280 281 285 290 291 290
290 289 287 287 287 288 291 293 293 292 290 291 292 292 291 291 291 290 289 287 287 287 285 281 280 278 274 272 271 269 270 273 275 273 272 275 277 278 277 277 280 283 283 284
290 290 289 290 291 291 293 294 294 293 293 294 293 292 291 291 290 287 285 283 281 282 282 279 276 273 270 267 266 264 266 270 274 273 272 272 274 275 273 272 273 274 276 281
292 291 290 291 291 292 293 294 294 294 294 295 295 293 291 290 288 284 281 279 277 279 279 277 272 268 265 264 263 263 265 269 271 271 271 272 272 271 270 270 270 272 274 280
293 293 293 292 292 292 293 294 294 294 295 295 294 292 291 290 287 282 278 275 274 274 274 271 266 263 262 263 264 262 262 264 267 266 266 267 267 269 270 269 267 271 277 279
292 294 295 294 293 293 294 294 294 294 294 295 294 292 290 288 285 281 278 274 269 268 267 264 260 259 260 263 263 260 259 262 263 259 259 262 266 266 266 267 265 269 276 277
291 293 295 295 295 295 295 296 295 294 293 293 294 292 290 287 283 278 274 270 266 264 263 260 256 257 259 259 259 259 260 259 259 257 256 262 265 266 267 268 266 265 270 274
292 294 295 294 294 295 295 297 296 294 293 292 293 292 287 283 279 275 270 267 264 261 259 257 255 256 257 257 258 259 259 259 259 256 253 256 257 260 263 263 263 261 264 267
294 295 295 295 294 295 296 296 296 296 293 291 290 289 284 279 275 272 268 264 262 258 254 252 252 254 256 258 258 257 258 258 258 253 249 249 251 253 255 257 258 259 261 260
295 295 295 295 295 295 295 297 296 296 293 290 287 285 280 274 271 270 265 261 258 253 250 249 250 253 255 255 255 254 255 256 254 252 249 248 249 248 250 252 255 258 257 255
Height
5592 5591 5589 5589 5588 5586 5585 5583 5582 5582 5581 5581 5578 5576 5575 5573 5572 5570 5568 5567 5566 5564 5563 5562 5560 5558 5557 5556 5554 5552 5551 5549 5548 5547 5547 5546 5545 5544 5544 5543 5543 5542 5542 5542
5586 5585 5583 5582 5582 5580 5579 5577 5575 5574 5574 5573 5570 5568 5567 5565 5564 5562 5561 5559 5558 5556 5555 5553 5552 5550 5549 5547 5545 5543 5541 5540 5539 5539 5538 5538 5537 5537 5536 5536 5535 5534 5534 5533
5579 5578 5576 5576 5577 5574 5572 5571 5569 5567 5567 5565 5563 5561 5559 5557 5556 5554 5553 5552 5550 5548 5546 5545 5543 5542 5540 5539 5537 5535 5533 5532 5531 5531 5530 5530 5529 5529 5529 5528 5527 5527 5527 5526
5571 5571 5569 5573 5569 5567 5565 5564 5562 5560 5558 5557 5555 5553 5552 5550 5548 5547 5546 5544 5542 5540 5539 5537 5535 5533 5531 5530 5529 5527 5525 5524 5523 5523 5522 5522 5522 5521 5521 5521 5521 5520 5519 5519
5564 5562 5562 5564 5563 5560 5558 5558 5555 5553 5551 5549 5548 5546 5545 5543 5541 5540 5538 5537 5535 5533 5531 5529 5527 5525 5524 5522 5521 5519 5517 5517 5516 5515 5514 5514 5514 5514 5514 5513 5513 5512 5511 5511
5557 5555 5555 5558 5556 5553 5552 5551 5550 5547 5545 5543 5541 5540 5540 5536 5534 5533 5531 5529 5527 5525 5524 5522 5520 5518 5516 5515 5513 5512 5510 5509 5508 5507 5506 5506 5506 5506 5506 5505 5505 5505 5504 5503
5551 5549 5549 5551 5548 5547 5547 5546 5543 5540 5538 5537 5535 5533 5532 5529 5527 5525 5524 5522 5520 5518 5517 5515 5513 5511 5509 5507 5505 5504 5502 5501 5500 5499 5498 5498 5498 5498 5498 5497 5497 5497 5497 5495
5544 5543 5545 5543 5541 5541 5540 5538 5536 5534 5532 5530 5528 5526 5524 5522 5520 5518 5516 5515 5513 5511 5510 5508 5506 5504 5502 5500 5498 5496 5495 5494 5493 5492 5491 5490 5491 5490 5490 5490 5490 5489 5489 5488
5539 5540 5538 5536 5535 5534 5533 5531 5529 5528 5526 5524 5522 5519 5517 5515 5513 5511 5509 5508 5506 5504 5502 5500 5498 5497 5495 5493 5491 5490 5488 5487 5486 5484 5484 5483 5483 5483 5482 5482 5482 5482 5482 5481
5532 5532 5531 5529 5528 5527 5526 5524 5523 5522 5520 5517 5515 5513 5511 5508 5506 5504 5503 5501 5499 5497 5495 5493 5491 5490 5488 5486 5484 5483 5482 5480 5479 5478 5477 5476 5476 5476 5476 5475 5475 5475 5475 5475
5526 5525 5524 5522 5521 5520 5519 5518 5516 5515 5513 5511 5509 5507 5505 5502 5500 5498 5496 5494 5492 5490 5488 5486 5484 5483 5481 5479 5478 5476 5475 5474 5472 5471 5471 5470 5470 5469 5470 5470 5469 5470 5469 5469
5520 5519 5517 5516 5515 5513 5512 5511 5510 5508 5507 5505 5502 5501 5498 5496 5494 5491 5489 5487 5485 5483 5481 5479 5478 5476 5474 5472 5471 5470 5469 5468 5467 5466 5466 5466 5465 5465 5464 5464 5464 5464 5464 5464
5513 5512 5510 5509 5508 5507 5506 5505 5503 5502 5500 5498 5496 5494 5492 5490 5487 5485 5483 5481 5479 5477 5475 5473 5471 5470 5468 5466 5465 5464 5463 5463 5463 5462 5462 5462 5462 5461 5461 5460 5459 5459 5459 5459
5507 5505 5504 5503 5502 5501 5499 5498 5497 5495 5494 5492 5490 5488 5486 5483 5481 5479 5477 5475 5473 5471 5469 5468 5466 5464 5463 5461 5461 5460 5459 5459 5459 5459 5458 5458 5458 5457 5457 5456 5456 5455 5455 5454
5501 5500 5499 5497 5496 5494 5493 5492 5490 5489 5487 5486 5484 5481 5479 5477 5475 5473 5471 5469 5467 5465 5464 5462 5461 5459 5458 5457 5456 5456 5456 5456 5456 5455 5455 5455 5455 5454 5453 5453 5452 5451 5451 5450
5495 5493 5492 5491 5490 5488 5487 5485 5484 5482 5481 5479 5477 5475 5473 5471 5469 5467 5465 5463 5462 5460 5458 5457 5456 5455 5454 5453 5452 5452 5452 5452 5452 5452 5452 5451 5451 5450 5450 5449 5449 5448 5447 5447
5488 5487 5486 5485 5484 5482 5481 5479 5477 5475 5474 5473 5471 5469 5467 5465 5463 5461 5459 5457 5456 5454 5453 5452 5451 5450 5449 5449 5449 5448 5449 5449 5449 5448 5448 5448 5447 5447 5446 5446 5446 5445 5444 5443
5482 5481 5480 5479 5477 5476 5474 5473 5471 5469 5467 5466 5464 5462 5460 5458 5456 5455 5453 5451 5450 5449 5448 5447 5446 5446 5445 5445 5445 5445 5445 5445 5445 5445 5445 5444 5444 5444 5443 5443 5443 5442 5441 5441
5476 5475 5473 5472 5471 5469 5468 5466 5464 5463 5461 5459 5457 5455 5454 5452 5450 5449 5447 5446 5445 5444 5443 5442 5442 5441 5441 5441 5441 5441 5441 5441 5441 5441 5441 5441 5441 5441 5440 5440 5440 5439 5439 5439
5470 5469 5467 5466 5464 5463 5462 5460 5458 5456 5454 5453 5451 5449 5447 5445 5444 5443 5442 5441 5440 5439 5438 5438 5437 5437 5437 5437 5437 5438 5438 5438 5438 5438 5438 5438 5438 5438 5438 5438 5437 5437 5437 5436
5464 5463 5461 5460 5458 5457 5455 5454 5452 5450 5448 5446 5444 5442 5440 5439 5437 5436 5436 5435 5435 5434 5434 5433 5433 5433 5434 5434 5434 5434 5435 5435 5435 5435 5435 5435 5435 5435 5435 5435 5435 5435 5435 5434
5458 5456 5455 5454 5452 5451 5449 5447 5445 5443 5441 5439 5438 5436 5434 5433 5431 5430 5430 5430 5430 5429 5429 5429 5429 5429 5430 5430 5430 5431 5431 5432 5432 5432 5433 5433 5433 5433 5433 5433 5433 5433 5433 5432
5452 5450 5449 5448 5446 5444 5442 5441 5439 5437 5435 5433 5431 5430 5428 5427 5425 5425 5424 5424 5424 5424 5424 5425 5425 5426 5426 5427 5427 5427 5428 5428 5429 5429 5430 5430 5430 5430 5430 5430 5430 5430 5430 5430
5446 5444 5443 5441 5439 5438 5436 5434 5432 5430 5429 5427 5425 5424 5422 5421 5420 5419 5419 5419 5419 5420 5420 5421 5421 5422 5422 5423 5423 5424 5424 5425 5426 5426 5426 5427 5427 5427 5428 5428 5428 5428 5428 5428
5439 5438 5436 5434 5433 5431 5430 5428 5426 5424 5422 5421 5420 5418 5417 5416 5416 5415 5415 5415 5416 5416 5416 5417 5418 5418 5419 5419 5420 5420 5421 5421 5422 5423 5423 5424 5424 5425 5425 5425 5426 5426 5426 5426
5433 5431 5430 5428 5426 5425 5423 5422 5420 5418 5417 5416 5414 5413 5413 5412 5412 5411 5411 5412 5412 5413 5413 5414 5414 5415 5416 5416 5417 5417 5418 5418 5419 5419 5420 5421 5421 5422 5422 5423 5424 5424 5424 5424
5426 5425 5423 5421 5420 5418 5417 5415 5414 5413 5411 5410 5409 5409 5408 5408 5408 5408 5408 5408 5408 5409 5410 5411 5411 5412 5413 5413 5414 5414 5414 5415 5415 5416 5417 5418 5418 5419 5420 5421 5421 5421 5422 5422